STARLINK-4709, 53778

Orbit data source: Space-Track

STARLINK-4709, 53778 is a payload satellite owned by SpaceX/Seattle (US) in LEO that was launched on Sun, 11 Sep 2022 UTC via an FALCON 9 launch vehicle from the Air Force Eastern Test Range (AFETR). Payload-class satellites include a variety of spacecraft equipped with specific instruments for various scientific and technological missions. These include communications satellites like Starlink; space stations such as the ISS; scientific satellites like the Hubble; Earth observation satellites from companies like Planet Labs, Umbra, and HawkEye 360; GPS; miniature CubeSats for education and research; and military/defense satellites.

Loading next visibility...
Identifier
53778, 2022-111F
Orbit
LEO
Country
Flag of USUS
Related business
Manufacturer
SpaceX/Seattle
Mission
Operational Commercial Communications
Bus & Motor
STARLINK, Unknown motor
Mass
305 kg wet, ~290 kg dry
Launch date (UTC)
2022-09-11 (4 years ago)
Launch vehicle
FALCON 9
Launch site
Air Force Eastern Test Range (AFETR)
Object type
Payload
Rocket body
Debris
Shape & HBR
Box + 1 Pan, 10.1 m
Radar Cross Section
13.562 m², Large (>1 m²)

Expand to show TLE details & history
Last TLE update: 13 hours ago

TLE from 13 hours ago
0 STARLINK-4709
1 53778U 22111F   26127.93328101  .00000822  00000-0  69703-4 0  9993
2 53778  53.2181  12.8937 0001536  91.1331 268.9838 15.08839924202574
Epoch: 2026-05-07T22:23Z
TLE epoch observation values (Epoch: 2026-05-07T22:23:55.479Z)
Latitude
0.00006°
Longitude
171.14027°
Altitude
540.66 km
Speed
7.593 km/s
True Right ascension
00h 51m 34s
True Declination
0° 00' 00"
Sunlit
Object was in daylight at epoch
Visualization orbit readout
Latitude
Unknown
Longitude
Unknown
Altitude
Unknown
Speed
Unknown
Apparent Right ascension
Unknown
Apparent Declination
Unknown
Sunlit
N/A
Visualization observer readout
Local Sidereal Time
19:34:05
Azimuth
Unknown
Elevation
Unknown
Doppler factor
Unknown
Orbital elements
Apogee altitude
541.051 km
Perigee altitude
538.926 km
Semi-major axis
6,918.125 km
Eccentricity
0.00015
Inclination
53.2181°
RAAN
12.8937°
Arg. of periapsis
91.1331°
True anomaly
268.9662°
Mean anomaly
268.9838°
Eccentric anomaly
268.975°
Mean motion
3.7719 °/min
Orbital period
95.44 mins
BSTAR
0.000069703
Loading maneuver chart data...
Computing Atmospheric mass density...
Loading historical data...
Loading historical data...
Loading historical data...
Loading historical data...
Loading historical data...
Loading historical data...
Loading historical data...

Documentation

Showing up to 5 results
|